GW0609 Weather Reports


time (UTC)temp
F
wind
direction
speed
knots
gust
knots
rain 1hr
in
rain 24hr
in
rain mn
in
humidity
%
barometer
mb
20260504030049 45 0 0.0 0.0 0.00 0.00 0.00 64 1014.6
20260504024549 46 0 0.0 0.0 0.00 0.00 0.00 62 1014.6
20260504023043 46 0 0.0 0.0 0.00 0.00 0.00 63 1014.6
20260504021543 46 0 0.0 0.0 0.00 0.00 0.00 61 1014.8
20260504020039 47 0 0.0 1.7 0.00 0.00 0.00 60 1014.6
20260504014540 47 0 0.0 1.7 0.00 0.00 0.00 59 1014.6
20260504013045 47 0 0.0 0.9 0.00 0.00 0.00 59 1014.4
20260504011545 48 0 0.0 1.7 0.00 0.00 0.00 58 1014.3
20260504010044 49 0 0.0 2.6 0.00 0.00 0.00 56 1014.3
20260504004542 49 140 0.0 3.5 0.00 0.01 0.00 55 1014.3
20260504003045 50 0 0.0 6.1 0.00 0.01 0.00 54 1014.2
20260504001539 51 259 0.0 1.7 0.00 0.01 0.00 54 1014.2
20260504000106 52 0 0.9 7.0 0.00 0.01 0.00 51 1014.2
20260503234544 53 248 0.9 5.2 0.00 0.01 0.00 50 1014.1
20260503233043 54 272 0.0 5.2 0.00 0.01 0.00 48 1014.2
20260503231542 55 273 2.6 7.8 0.00 0.01 0.00 47 1014.2
20260503230040 55 292 1.7 7.0 0.00 0.01 0.00 46 1014.2
20260503224538 55 279 2.6 12.2 0.00 0.01 0.00 47 1014.2
20260503223045 56 195 2.6 9.6 0.00 0.01 0.00 47 1014.2
20260503221541 55 0 1.7 9.6 0.00 0.01 0.00 47 1014.2
20260503220046 55 266 2.6 11.3 0.00 0.01 0.00 49 1014.1
20260503214540 56 275 4.3 11.3 0.00 0.01 0.00 49 1014.2
20260503213039 56 286 3.5 10.4 0.00 0.01 0.00 45 1014.2
20260503211544 55 265 1.7 7.0 0.00 0.01 0.00 51 1014.3
20260503210043 55 265 4.3 13.9 0.00 0.01 0.00 47 1014.3
20260503204546 56 261 3.5 9.6 0.00 0.01 0.00 48 1014.2
20260503203044 55 259 3.5 11.3 0.00 0.01 0.00 47 1014.4
20260503201544 56 306 5.2 11.3 0.00 0.01 0.00 46 1014.5
20260503200039 55 237 4.3 9.6 0.00 0.01 0.00 48 1014.7
20260503194547 55 246 6.1 13.0 0.00 0.01 0.00 48 1015.0
20260503193043 56 306 2.6 10.4 0.00 0.01 0.00 48 1015.0
20260503191544 56 288 3.5 14.8 0.00 0.01 0.00 48 1015.1
20260503190045 56 268 4.3 13.9 0.00 0.01 0.00 50 1015.3
20260503184600 56 42 3.5 10.4 0.00 0.01 0.00 52 1015.5
20260503183040 55 298 5.2 13.0 0.00 0.01 0.00 48 1015.7
20260503181551 55 275 2.6 12.2 0.00 0.01 0.00 51 1015.7
20260503180045 54 284 5.2 12.2 0.00 0.01 0.00 50 1015.8
20260503174545 54 294 3.5 11.3 0.00 0.01 0.00 54 1015.8
20260503173041 53 277 4.3 13.0 0.00 0.01 0.00 48 1016.2
20260503171603 52 263 4.3 13.9 0.00 0.01 0.00 48 1016.4
20260503081545 32 0 0.0 0.0 0.00 0.01 0.00 84 1016.1
20260503071558 33 0 0.0 0.9 0.00 0.01 0.00 83 1015.8
20260503054557 35 258 0.9 2.6 0.00 0.01 0.00 80 1015.9
20260503053043 35 261 0.9 3.5 0.00 0.01 0.00 79 1015.9
20260503051545 35 279 0.0 2.6 0.00 0.01 0.00 79 1016.1
20260503050046 35 257 0.0 2.6 0.00 0.01 0.00 79 1016.1
20260503044549 36 261 0.9 3.5 0.00 0.01 0.00 79 1016.2
20260503043050 36 275 0.9 2.6 0.00 0.01 0.00 79 1016.2
20260503041547 36 281 0.9 1.7 0.00 0.01 0.00 78 1016.2
20260503040045 36 257 0.9 5.2 0.00 0.01 0.00 78 1016.2
20260503034542 36 281 0.9 3.5 0.00 0.01 0.01 77 1016.2
20260503033044 37 281 1.7 5.2 0.00 0.01 0.01 77 1016.2
20260503031540 37 243 1.7 5.2 0.00 0.01 0.01 77 1016.3